User: anonymous   Login
Location: Caltech
(34.1382°N, 118.1253°W)
Time: 14:29:38
(UTC-07:00)
Language:

CZ-2C R/B - Orbit

View from above orbital plane
View from above orbital plane
View from above satellite
View from above satellite

Ground track
Ground track

The orbit data is extracted from the following two-line orbital elements,

1 28480U 04046B   17118.91174994 +.00000016 +00000-0 +21467-4 0  9999
2 28480 098.1930 218.2811 0142175 010.5125 097.0026 14.25634342647196
Epoch (UTC): 28 April 2017 21:52:55
Eccentricity: 0.0142175
inclination: 98.1930°
perigee height: 704 km
apogee height: 908 km
right ascension of ascending node: 218.2811°
argument of perigee: 10.5125°
revolutions per day: 14.25634342
mean anomaly at epoch: 97.0026°
orbit number at epoch: 64719

The dashed part of the orbit path shows where the satellite is in the earth's shadow,  

DLR